490  
ASUS43 KJKL 071110  
RWRJKL  
 
EAST KENTUCKY HOURLY WEATHER ROUNDUP  
NATIONAL WEATHER SERVICE JACKSON KY  
600 AM EST TUE FEB 07 2023  
 
NOTE: "FAIR" INDICATES FEW OR NO CLOUDS BELOW 12,000 FEET WITH  
NO SIGNIFICANT WEATHER AND/OR S TO VISIBILITY
.  
 
* THESE REPORTS ARE NOT UNDER NWS QUALITY CONTROL AND MAY NOT  
REPORT WEATHER SUCH AS PRECIPITATION AND FOG.
 
 
KYZ079-080-083-085-087-088-110-112-115-119-120-071200   
..EASTERN KENTUCKY
 
 
 
CITY SKY/WX TMP DP RH WIND PRES REMARKS
 
JACKSON PTCLDY 44 25 47 S7 30.16R  
LONDON MOCLDY 36 27 69 CALM 30.18R  
SOMERSET* MOCLDY 46 28 49 S3 30.17R  
MONTICELLO* MOCLDY 49 29 46 S7 30.20R  
WILLIAMSBURG* FAIR 41 28 60 SE6 30.18R  
MIDDLESBORO* MOCLDY 37 29 75 CALM 30.23R  
HARLAN APT* MOSUNNY 47 29 49 CALM 30.21R  
PIKE CO APT* FAIR 42 25 51 S6 30.17S  
BIG SANDY APT* MOSUNNY 41 27 56 S5 30.17R  
MOREHEAD APT* PTSUNNY 41 25 52 SE5 30.15S  
ASHLAND* MOCLDY 27 26 96 E3 30.18S  

 
 
KYZ035-036-041-042-044-050-067-078-099-071200   
..CENTRAL KENTUCKY
 
 
 
CITY SKY/WX TMP DP RH WIND PRES REMARKS
 
MT STERLING* MOCLDY 45 28 53 SW7 30.16R  
FLEMING/MASON* MOCLDY 40 27 61 S9 30.13F WCI 33  
DANVILLE* MOCLDY 43 28 56 CALM 30.16R  
RICHMOND* FAIR 48 30 49 S13 30.16S  
LEXINGTON MOCLDY 47 28 47 S10 30.12R  
FRANKFORT MOCLDY 46 29 51 S12 30.09S  
LOUISVILLE CLOUDY 54 31 41 S10 30.07R  
LEBANON* FAIR 48 30 49 S10 30.13R  
GLASGOW* MOCLDY 48 32 53 S5 30.14S  
BOWLING GREEN MOCLDY 50 31 48 S7 30.13R  

 
 
KYZ091>093-OHZ055-061-077-WVZ005-015-034-035-042-071200   
..SOUTHERN OHIO/WEST VIRGINIA
 
 
 
CITY SKY/WX TMP DP RH WIND PRES REMARKS
 
COVINGTON CLOUDY 43 29 57 S10 30.04S  
COLUMBUS CLOUDY 37 27 67 SE8 30.07F WCI 31  
DAYTON MOCLDY 42 27 55 S14 30.01F  
WILMINGTON MOCLDY 42 28 57 S13 30.05F  
HUNTINGTON PTCLDY 31 25 78 E3 30.17R  
CHARLESTON PTCLDY 28 26 92 CALM 30.18R  
BECKLEY PTCLDY 36 22 56 VRB7 30.21R WCI 30  
BLUEFIELD CLEAR 40 19 43 S3 30.22R  
LOGAN CO APT* FAIR 43 23 45 S7 30.17S  

 
 
VAZ002-007-008-TNZ017-027-036-066-071-071200   
..SOUTHWEST VIRGINIA/EAST TENNESSEE
 
 
 
CITY SKY/WX TMP DP RH WIND PRES REMARKS
 
WISE* PTCLDY 41 23 48 S7 30.21R  
JONESVILLE* FAIR 27 27 100 CALM 30.25R  
ABINGDON* PTCLDY 35 24 63 E3 30.23S  
BRISTOL MOCLDY 30 25 81 CALM 30.24R  
MORRISTOWN* SUNNY 34 30 86 NE3 30.22R  
SEVIERVILLE* SUNNY 30 30 100 CALM 30.24R  
KNOXVILLE CLOUDY 34 29 82 NE3 30.22R  
LAFOLLETTE* SUNNY 30 28 93 CALM 30.26R  
OAK RIDGE MOCLDY 35 31 85 CALM 30.24R  
CROSSVILLE MOCLDY 48 28 46 S7 30.20R  
NASHVILLE MOCLDY 47 31 53 S3 30.18R  

 
   
..KEY TO REMARKS
 
 
VSB - VISIBILITY IN MILES  
WCI - WIND CHILL INDEX  
HX - HEAT INDEX  
 

 
 
 
CLICK HERE TO GO TO PREVIOUS BULLETINS.

The Nexlab KY Page Main Text Page